Flag for Turkey Weather past 2 weeks in Mersin, Turkey

Now
79 °F

Passing clouds.


Feels Like: 82 °F
Forecast: 67 / 90 °F
Wind: 5 mph from South

Location: Adana / Sakirpasa

Current Time: Jul 24, 2014 at 9:52:30 PM

Latest Report: Jul 24, 2014 at 9:20 PM


Visibility: N/A

Pressure: 29.68 "Hg

Humidity: 84%

Dew point: 73 °F

Location of MersinLocation

Historic Weather in Mersin — Graph

°F

Mersin temperature yesterday

Maximum temperature yesterday: 91 °F (at 12:50 PM)
Minimum temperature yesterday: 77 °F (at 2:50 AM)
Average temperature yesterday: 83 °F

Past Weeks' High & Low Weather Summary

 TemperatureHumidityPressure
High91 °F (Jul 10, 12:50 PM)94% (Jul 12, 2:50 AM)29.83 "Hg (Jul 12, 2:50 AM)
Low73 °F (Jul 13, 5:20 AM)38% (Jul 17, 1:50 PM)29.59 "Hg (Jul 20, 12:20 PM)
Average82 °F73%29.71 "Hg
* Reported Jul 9 8:20 PM — Jul 24 8:20 PM, Mersin, Weather by CustomWeather, © 2014

Note: Actual official high and low records may vary slightly from our data, if they occured in-between our weather recording intervals... More about our weather records

Advertising

Mersin weather history for previous 24 hours

 ConditionsComfort  
Time TempWeatherWind HumidityBarometerVisibility
8:20 PM
Jul 24
82 °FPartly sunny.7 mph79%29.68 "HgN/A
7:50 PM82 °FScattered clouds.6 mph79%29.65 "HgN/A
7:20 PM84 °FPassing clouds.9 mph70%29.65 "HgN/A
6:50 PM84 °FPassing clouds.10 mph70%29.65 "HgN/A
6:20 PM86 °FPassing clouds.9 mph62%29.65 "HgN/A
5:50 PM86 °FPassing clouds.13 mph62%29.65 "HgN/A
5:20 PM86 °FPassing clouds.13 mph62%29.65 "HgN/A
4:50 PM90 °FPassing clouds.12 mph49%29.65 "HgN/A
4:20 PM90 °FScattered clouds.14 mph49%29.65 "HgN/A
3:50 PM90 °FScattered clouds.14 mph49%29.68 "HgN/A
3:20 PM90 °FScattered clouds.13 mph55%29.68 "HgN/A
2:50 PM91 °FScattered clouds.13 mph52%29.68 "HgN/A
2:20 PM90 °FScattered clouds.12 mph59%29.68 "HgN/A
1:50 PM90 °FScattered clouds.12 mph55%29.68 "HgN/A
1:20 PM90 °FScattered clouds.12 mph59%29.68 "HgN/A
12:50 PM90 °FScattered clouds.9 mph55%29.68 "HgN/A
12:20 PM90 °FScattered clouds.7 mph52%29.68 "HgN/A
11:50 AM90 °FScattered clouds.7 mph55%29.68 "HgN/A
11:20 AM88 °FScattered clouds.5 mph59%29.71 "HgN/A
10:50 AM86 °FScattered clouds.6 mph66%29.71 "HgN/A
10:20 AM86 °FScattered clouds.6 mph66%29.71 "HgN/A
9:50 AM84 °FScattered clouds.5 mph70%29.71 "HgN/A
9:20 AM84 °FScattered clouds.5 mph74%29.71 "HgN/A
8:50 AM84 °FScattered clouds.3 mph70%29.71 "HgN/A
8:20 AM82 °FScattered clouds.5 mph79%29.71 "HgN/A
7:50 AM81 °FScattered clouds.5 mph84%29.71 "HgN/A
7:20 AM79 °FScattered clouds.2 mph89%29.71 "HgN/A
6:50 AM77 °FScattered clouds.2 mph94%29.71 "HgN/A
6:20 AM77 °FPassing clouds.3 mph94%29.71 "HgN/A
5:50 AM77 °FPassing clouds.3 mph89%29.71 "HgN/A
5:20 AM77 °FPassing clouds.3 mph89%29.71 "HgN/A
4:50 AM77 °FPassing clouds.5 mph94%29.71 "HgN/A
4:20 AM77 °FPassing clouds.3 mph89%29.71 "HgN/A
3:50 AM77 °FPassing clouds.5 mph94%29.71 "HgN/A
3:20 AM79 °FPassing clouds.5 mph89%29.71 "HgN/A
2:50 AM79 °FPassing clouds.5 mph89%29.74 "HgN/A
2:20 AM79 °FPassing clouds.5 mph89%29.74 "HgN/A
1:50 AM79 °FPassing clouds.5 mph89%29.74 "HgN/A
1:20 AM77 °FPassing clouds.3 mph94%29.74 "HgN/A
12:50 AM77 °FPassing clouds.5 mph94%29.77 "HgN/A
12:20 AM79 °FPassing clouds.5 mph89%29.77 "HgN/A
11:50 PM
Jul 23
79 °FPassing clouds.5 mph89%29.77 "HgN/A
11:20 PM79 °FPassing clouds.5 mph89%29.77 "HgN/A
10:50 PM79 °FPassing clouds.3 mph89%29.77 "HgN/A
9:50 PM81 °FPassing clouds.3 mph84%29.77 "HgN/A
9:20 PM79 °FPassing clouds.3 mph89%29.77 "HgN/A
Weather by CustomWeather, © 2014

See weather overviewHow to use our weather pages